カタログに戻る

STARLINK-37155

運用中通信SSO
NORAD 68314·PAYLOAD·🇺🇸 United States

打ち上げ Mar 20, 2026 から Vandenberg Space Force Base

Loading…

次のパス (今後24時間)

TLE

最新Source: CelesTrak SupGP

元期: Sep 15, 2026, 03:20 UTC

1 68314C 26057W   26258.13937500  .00005789  00000+0  17969-3 0  2584
2 68314  97.2862  23.6232 0001163  93.0699 224.1248 15.33439123    11

AllMySatでSTARLINK-37155をリアルタイム追跡

Download on the App Store